Terminal Aerodrome Forecast
Issued by NWS Brownsville, TX

Home | Current Version | Previous Version | Text Only | Print | Product List | Glossary On
Versions: 1 2 3 4 5 6 7 8 9 10 11 12 13 14 15 16
000
FTUS44 KBRO 201100
TAFHRL
TAF
KHRL 201124Z 2012/2112 15007KT P6SM FEW020
     FM201400 15017G24KT P6SM SCT040
     FM210300 15012G18KT P6SM SKC
     FM210800 15010KT P6SM FEW025=

USA.gov is the U.S. government's official web portal to all federal, state and local government web resources and services.